| time (UTC) | temp C | wind direction | speed KPH | gust KPH | rain 1hr cm | rain 24hr cm | rain mn cm | humidity % | barometer mb |
| 20260505211506 | 18 | 211 | 12.9 | 35.4 | 0.00 | 0.00 | 0.00 | 62 | 1005.9 |
| 20260505210002 | 18 | 207 | 14.5 | 30.6 | 0.00 | 0.00 | 0.00 | 62 | 1005.9 |
| 20260505204600 | 17 | 194 | 11.3 | 24.1 | 0.00 | 0.00 | 0.00 | 64 | 1006.0 |
| 20260505203058 | 17 | 186 | 9.7 | 27.4 | 0.00 | 0.00 | 0.00 | 67 | 1006.0 |
| 20260505201558 | 17 | 202 | 12.9 | 24.1 | 0.00 | 0.00 | 0.00 | 65 | 1006.0 |
| 20260505194555 | 15 | 117 | 11.3 | 24.1 | 0.00 | 0.00 | 0.00 | 73 | 1006.5 |
| 20260505193050 | 17 | 153 | 9.7 | 24.1 | 0.00 | 0.00 | 0.00 | 68 | 1006.8 |
| 20260505191549 | 17 | 251 | 6.4 | 22.5 | 0.00 | 0.00 | 0.00 | 70 | 1007.0 |
| 20260505190048 | 15 | 124 | 11.3 | 19.3 | 0.00 | 0.00 | 0.00 | 74 | 1007.0 |
| 20260505184547 | 15 | 154 | 8.0 | 16.1 | 0.00 | 0.00 | 0.00 | 73 | 1006.9 |
| 20260505183054 | 15 | 131 | 16.1 | 25.7 | 0.00 | 0.00 | 0.00 | 73 | 1006.7 |
| 20260505181546 | 14 | 119 | 20.9 | 27.4 | 0.00 | 0.00 | 0.00 | 73 | 1007.0 |
| 20260505180046 | 16 | 226 | 4.8 | 27.4 | 0.00 | 0.00 | 0.00 | 65 | 1007.5 |
| 20260505174545 | 16 | 147 | 11.3 | 30.6 | 0.00 | 0.00 | 0.00 | 68 | 1007.6 |
| 20260505173038 | 17 | 203 | 16.1 | 37.0 | 0.00 | 0.00 | 0.00 | 66 | 1007.9 |
| 20260505171536 | 17 | 189 | 11.3 | 33.8 | 0.00 | 0.00 | 0.00 | 66 | 1008.0 |
| 20260505170033 | 16 | 221 | 16.1 | 27.4 | 0.00 | 0.00 | 0.00 | 70 | 1008.3 |
| 20260505164535 | 16 | 165 | 11.3 | 22.5 | 0.00 | 0.00 | 0.00 | 69 | 1008.3 |
| 20260505163031 | 16 | 191 | 11.3 | 25.7 | 0.00 | 0.00 | 0.00 | 70 | 1008.4 |
| 20260505161529 | 15 | 251 | 17.7 | 35.4 | 0.00 | 0.00 | 0.00 | 71 | 1009.1 |
| 20260505153027 | 15 | 172 | 14.5 | 37.0 | 0.00 | 0.00 | 0.00 | 71 | 1008.8 |
| 20260505151528 | 14 | 209 | 12.9 | 24.1 | 0.00 | 0.00 | 0.00 | 73 | 1008.8 |
| 20260505124524 | 15 | 167 | 8.0 | 19.3 | 0.00 | 0.00 | 0.00 | 65 | 1009.2 |
| 20260505123027 | 15 | 270 | 11.3 | 22.5 | 0.00 | 0.00 | 0.00 | 64 | 1009.3 |
| 20260505121519 | 15 | 269 | 12.9 | 24.1 | 0.00 | 0.00 | 0.00 | 67 | 1009.5 |
| 20260505120027 | 13 | 248 | 8.0 | 19.3 | 0.00 | 0.00 | 0.00 | 72 | 1009.7 |
| 20260505114508 | 10 | 150 | 4.8 | 12.9 | 0.00 | 0.00 | 0.00 | 83 | 1010.0 |
| 20260505113006 | 10 | 131 | 9.7 | 12.9 | 0.00 | 0.00 | 0.00 | 81 | 1009.9 |
| 20260505111513 | 11 | 86 | 1.6 | 9.7 | 0.00 | 0.00 | 0.00 | 80 | 1009.9 |
| 20260505101506 | 10 | 281 | 4.8 | 12.9 | 0.00 | 0.00 | 0.00 | 81 | 1009.9 |
| 20260505094559 | 10 | 247 | 4.8 | 9.7 | 0.00 | 0.00 | 0.00 | 80 | 1009.6 |
| 20260505093101 | 10 | 260 | 8.0 | 14.5 | 0.00 | 0.00 | 0.00 | 80 | 1009.4 |
| 20260505091606 | 10 | 276 | 8.0 | 14.5 | 0.00 | 0.00 | 0.00 | 79 | 1009.4 |
| 20260505090057 | 10 | 279 | 8.0 | 17.7 | 0.00 | 0.00 | 0.00 | 78 | 1009.4 |
| 20260505084556 | 10 | 264 | 11.3 | 20.9 | 0.00 | 0.00 | 0.00 | 78 | 1009.4 |
| 20260505083057 | 10 | 284 | 12.9 | 22.5 | 0.00 | 0.00 | 0.00 | 77 | 1009.3 |
| 20260505081550 | 10 | 257 | 11.3 | 19.3 | 0.00 | 0.00 | 0.00 | 77 | 1009.3 |
| 20260505080051 | 10 | 275 | 11.3 | 19.3 | 0.00 | 0.00 | 0.00 | 77 | 1009.2 |
| 20260505074547 | 10 | 294 | 9.7 | 17.7 | 0.00 | 0.00 | 0.00 | 77 | 1009.2 |
| 20260505073052 | 10 | 299 | 9.7 | 19.3 | 0.00 | 0.00 | 0.00 | 76 | 1009.3 |
| 20260505071554 | 10 | 292 | 11.3 | 16.1 | 0.00 | 0.00 | 0.00 | 76 | 1009.2 |
| 20260505070041 | 11 | 267 | 11.3 | 17.7 | 0.00 | 0.00 | 0.00 | 75 | 1009.2 |
| 20260505064541 | 11 | 275 | 9.7 | 17.7 | 0.00 | 0.00 | 0.00 | 75 | 1009.1 |
| 20260505063036 | 11 | 274 | 9.7 | 14.5 | 0.00 | 0.00 | 0.00 | 74 | 1009.1 |
| 20260505061534 | 11 | 274 | 9.7 | 16.1 | 0.00 | 0.00 | 0.00 | 73 | 1009.0 |
| 20260505060044 | 11 | 311 | 8.0 | 14.5 | 0.00 | 0.00 | 0.00 | 73 | 1009.0 |
| 20260505054533 | 11 | 296 | 9.7 | 17.7 | 0.00 | 0.00 | 0.00 | 72 | 1008.9 |
| 20260505053030 | 11 | 306 | 11.3 | 17.7 | 0.00 | 0.00 | 0.00 | 72 | 1008.8 |
| 20260505051529 | 11 | 274 | 9.7 | 16.1 | 0.00 | 0.00 | 0.00 | 72 | 1008.6 |
| 20260505041524 | 11 | 308 | 9.7 | 17.7 | 0.00 | 0.00 | 0.00 | 73 | 1008.2 |
| 20260505040017 | 11 | 309 | 9.7 | 17.7 | 0.00 | 0.00 | 0.00 | 73 | 1008.2 |
| 20260505034516 | 11 | 302 | 9.7 | 17.7 | 0.00 | 0.00 | 0.00 | 74 | 1008.2 |
| 20260505033016 | 11 | 286 | 9.7 | 14.5 | 0.00 | 0.00 | 0.00 | 75 | 1008.1 |
| 20260505031515 | 10 | 292 | 8.0 | 12.9 | 0.00 | 0.00 | 0.00 | 76 | 1008.1 |
| 20260505030015 | 10 | 300 | 4.8 | 11.3 | 0.00 | 0.00 | 0.00 | 75 | 1008.1 |
| 20260505024515 | 10 | 290 | 6.4 | 12.9 | 0.00 | 0.00 | 0.00 | 74 | 1008.2 |
| 20260505023021 | 10 | 292 | 9.7 | 12.9 | 0.00 | 0.00 | 0.00 | 74 | 1008.1 |
| 20260505021516 | 10 | 298 | 6.4 | 11.3 | 0.00 | 0.00 | 0.00 | 74 | 1008.1 |
| 20260505020013 | 11 | 288 | 9.7 | 14.5 | 0.00 | 0.00 | 0.00 | 73 | 1008.0 |
| 20260505014515 | 11 | 271 | 4.8 | 11.3 | 0.00 | 0.00 | 0.00 | 72 | 1007.9 |
| 20260505013014 | 11 | 303 | 6.4 | 9.7 | 0.00 | 0.00 | 0.00 | 71 | 1007.9 |
| 20260505011513 | 11 | 294 | 6.4 | 9.7 | 0.00 | 0.00 | 0.00 | 69 | 1007.8 |
| 20260505010012 | 11 | 290 | 4.8 | 11.3 | 0.00 | 0.00 | 0.00 | 69 | 1007.6 |
| 20260505004519 | 11 | 17 | 1.6 | 3.2 | 0.00 | 0.00 | 0.00 | 76 | 1007.5 |
| 20260505003011 | 11 | 105 | 0.0 | 4.8 | 0.00 | 0.00 | 0.00 | 73 | 1007.2 |
| 20260505001511 | 13 | 298 | 0.0 | 9.7 | 0.00 | 0.00 | 0.00 | 66 | 1007.0 |
| 20260505000020 | 13 | 304 | 6.4 | 8.0 | 0.00 | 0.00 | 0.00 | 64 | 1006.9 |
| 20260504234510 | 13 | 290 | 3.2 | 8.0 | 0.00 | 0.00 | 0.00 | 66 | 1006.7 |
| 20260504233011 | 12 | 325 | 3.2 | 6.4 | 0.00 | 0.00 | 0.00 | 72 | 1006.6 |
| 20260504231509 | 12 | 38 | 1.6 | 9.7 | 0.00 | 0.00 | 0.00 | 68 | 1006.4 |
| 20260504230009 | 13 | 34 | 4.8 | 9.7 | 0.00 | 0.00 | 0.00 | 68 | 1006.1 |
| 20260504224505 | 14 | 306 | 4.8 | 14.5 | 0.00 | 0.00 | 0.00 | 67 | 1005.9 |
| 20260504223007 | 12 | 134 | 8.0 | 16.1 | 0.00 | 0.00 | 0.00 | 71 | 1005.8 |
| 20260504221503 | 18 | 219 | 3.2 | 17.7 | 0.00 | 0.00 | 0.00 | 47 | 1005.7 |
| 20260504220003 | 18 | 288 | 14.5 | 24.1 | 0.00 | 0.00 | 0.00 | 46 | 1005.7 |
| 20260504214502 | 18 | 294 | 9.7 | 27.4 | 0.00 | 0.00 | 0.00 | 46 | 1005.7 |
| 20260504213002 | 18 | 238 | 17.7 | 33.8 | 0.00 | 0.00 | 0.00 | 46 | 1005.6 |